Location: Chèvreville
(49.1099°N, 2.8495°E)
Time: 18:01:20
(UTC+00:00)

Cosmos 1892 - Pass Details

Date: 28 January 2023
Orbit: 486 x 506 km, 82.5° (Epoch: 25 March)

Event Time Altitude Azimuth Distance (km) Brightness Sun altitude
Rises 18:27:19 0° 174° (S) 2,560 6.3 -17.8°
Reaches altitude 10° 18:29:27 10° 168° (SSE) 1,688 5.2 -18.1°
Enters shadow 18:32:18 41° 128° (SE) 740 3.1 -18.6°
